When you browse on this site, cookies collect data to enhance your experience and personalize the content and advertising you see.
Visit our Privacy Policy to learn more. By continuing to use the site, you agree to this use of cookies and data.
  • Em Portugal
  • Lista de países
  • Para 7 dias
  • Temperatura da água
  • Mapas de satélite
  • Mapa do tempo
  • Widgets de tempo
  • user-avatar
    Iniciar Sessão

    Previsão horária em Melbourne

    Hoje, 23 Maio, Quinta-feira

    Tempo Temperatura Precipitação Vento Pressão Humidade
    00:00 +14°C° 0 mm 3 m/s 769 mmHg 72%
    01:00 +13°C° 0 mm 3 m/s 769 mmHg 74%
    02:00 +13°C° 0 mm 3 m/s 768 mmHg 74%
    03:00 +13°C° 0 mm 3 m/s 768 mmHg 73%
    04:00 +13°C° 0 mm 3 m/s 768 mmHg 73%
    05:00 +13°C° 0 mm 3 m/s 768 mmHg 72%
    06:00 +13°C° 0 mm 3 m/s 768 mmHg 72%
    07:00 +12°C° 0 mm 3 m/s 768 mmHg 72%
    08:00 +14°C° 0 mm 3 m/s 768 mmHg 67%
    09:00 +15°C° 0 mm 4 m/s 768 mmHg 61%
    10:00 +18°C° 0 mm 4 m/s 768 mmHg 56%
    11:00 +19°C° 0 mm 4 m/s 767 mmHg 51%
    12:00 +20°C° 0 mm 5 m/s 767 mmHg 46%
    13:00 +22°C° 0 mm 5 m/s 766 mmHg 42%
    14:00 +21°C° 0 mm 5 m/s 766 mmHg 44%
    15:00 +21°C° 0 mm 5 m/s 765 mmHg 46%
    16:00 +21°C° 0 mm 5 m/s 765 mmHg 47%
    17:00 +20°C° 0 mm 5 m/s 765 mmHg 50%
    18:00 +19°C° 0 mm 5 m/s 765 mmHg 52%
    19:00 +17°C° 0 mm 6 m/s 765 mmHg 55%
    20:00 +17°C° 0 mm 6 m/s 765 mmHg 53%
    21:00 +17°C° 0 mm 6 m/s 764 mmHg 51%
    22:00 +17°C° 0 mm 6 m/s 764 mmHg 50%
    23:00 +17°C° 0 mm 6 m/s 764 mmHg 49%

    Amanhã, 24 Maio, Sexta-feira

    Tempo Temperatura Precipitação Vento Pressão Humidade
    00:00 +17°C° 0 mm 6 m/s 764 mmHg 47%
    01:00 +17°C° 0 mm 6 m/s 763 mmHg 46%
    02:00 +16°C° 0 mm 6 m/s 763 mmHg 46%
    03:00 +16°C° 0 mm 6 m/s 763 mmHg 47%
    04:00 +16°C° 0 mm 6 m/s 763 mmHg 47%
    05:00 +15°C° 0 mm 6 m/s 762 mmHg 48%
    06:00 +15°C° 0 mm 6 m/s 762 mmHg 49%
    07:00 +14°C° 0 mm 6 m/s 762 mmHg 50%
    08:00 +15°C° 0 mm 5 m/s 762 mmHg 50%
    09:00 +16°C° 0 mm 5 m/s 762 mmHg 50%
    10:00 +16°C° 0 mm 5 m/s 762 mmHg 49%
    11:00 +17°C° 0 mm 6 m/s 762 mmHg 47%
    12:00 +18°C° 0 mm 7 m/s 761 mmHg 45%
    13:00 +21°C° 0 mm 7 m/s 760 mmHg 44%
    14:00 +21°C° 0 mm 7 m/s 760 mmHg 47%
    15:00 +21°C° 0 mm 7 m/s 759 mmHg 50%
    16:00 +21°C° 0 mm 7 m/s 759 mmHg 53%
    17:00 +20°C° 0 mm 7 m/s 759 mmHg 56%
    18:00 +18°C° 0 mm 7 m/s 759 mmHg 59%
    19:00 +17°C° 0 mm 7 m/s 759 mmHg 62%
    20:00 +17°C° 0 mm 6 m/s 760 mmHg 64%
    21:00 +17°C° 0 mm 5 m/s 760 mmHg 65%
    22:00 +17°C° 0 mm 4 m/s 760 mmHg 67%
    23:00 +17°C° 0 mm 4 m/s 760 mmHg 70%

    Depois de amanhã, 25 Maio, Sábado

    Tempo Temperatura Precipitação Vento Pressão Humidade
    00:00 +15°C° 0 mm 4 m/s 759 mmHg 73%
    01:00 +14°C° 0 mm 3 m/s 759 mmHg 77%
    02:00 +14°C° 0 mm 3 m/s 759 mmHg 76%
    03:00 +14°C° 0 mm 3 m/s 759 mmHg 76%
    04:00 +13°C° 0 mm 3 m/s 758 mmHg 75%
    05:00 +13°C° 0 mm 4 m/s 758 mmHg 76%
    06:00 +13°C° 0 mm 4 m/s 758 mmHg 77%
    07:00 +13°C° 0 mm 4 m/s 758 mmHg 78%
    08:00 +14°C° 0 mm 4 m/s 758 mmHg 74%
    09:00 +15°C° 0 mm 5 m/s 759 mmHg 70%
    10:00 +16°C° 0 mm 5 m/s 759 mmHg 65%
    11:00 +16°C° 0.4 mm 5 m/s 758 mmHg 66%
    12:00 +16°C° 0.4 mm 5 m/s 758 mmHg 66%
    13:00 +16°C° 0.4 mm 5 m/s 757 mmHg 66%
    14:00 +16°C° 0.9 mm 5 m/s 757 mmHg 68%
    15:00 +16°C° 0.9 mm 5 m/s 757 mmHg 70%
    16:00 +17°C° 0.9 mm 4 m/s 757 mmHg 72%
    17:00 +15°C° 0.2 mm 4 m/s 757 mmHg 75%
    18:00 +14°C° 0.2 mm 3 m/s 758 mmHg 78%
    19:00 +13°C° 0.2 mm 3 m/s 758 mmHg 80%
    20:00 +12°C° 0.1 mm 3 m/s 758 mmHg 80%
    21:00 +12°C° 0.1 mm 3 m/s 758 mmHg 80%
    22:00 +12°C° 0.1 mm 4 m/s 758 mmHg 79%
    23:00 +11°C° 0 mm 4 m/s 758 mmHg 79%

    26 Maio, Domingo

    Tempo Temperatura Precipitação Vento Pressão Humidade
    00:00 +11°C° 0 mm 4 m/s 758 mmHg 78%
    01:00 +10°C° 0 mm 4 m/s 758 mmHg 77%
    02:00 +10°C° 0 mm 4 m/s 758 mmHg 77%
    03:00 +10°C° 0 mm 4 m/s 758 mmHg 78%
    04:00 +10°C° 0 mm 4 m/s 758 mmHg 78%
    05:00 +10°C° 0 mm 4 m/s 758 mmHg 78%
    06:00 +8°C° 0 mm 4 m/s 758 mmHg 78%
    07:00 +8°C° 0 mm 4 m/s 759 mmHg 78%
    08:00 +10°C° 0 mm 4 m/s 759 mmHg 73%
    09:00 +10°C° 0 mm 5 m/s 759 mmHg 68%
    10:00 +12°C° 0 mm 5 m/s 759 mmHg 62%
    11:00 +13°C° 0 mm 6 m/s 758 mmHg 56%
    12:00 +14°C° 0 mm 6 m/s 758 mmHg 50%
    13:00 +15°C° 0 mm 7 m/s 757 mmHg 43%
    14:00 +15°C° 0.3 mm 7 m/s 757 mmHg 50%
    15:00 +14°C° 0.3 mm 6 m/s 756 mmHg 56%
    16:00 +13°C° 0.3 mm 6 m/s 756 mmHg 63%
    17:00 +12°C° 0.4 mm 7 m/s 756 mmHg 65%
    18:00 +11°C° 0.4 mm 7 m/s 756 mmHg 67%
    19:00 +11°C° 0.4 mm 7 m/s 757 mmHg 70%
    20:00 +11°C° 0.2 mm 7 m/s 757 mmHg 70%
    21:00 +10°C° 0.2 mm 7 m/s 757 mmHg 71%
    22:00 +10°C° 0.2 mm 7 m/s 758 mmHg 72%
    23:00 +10°C° 0.1 mm 7 m/s 758 mmHg 70%

    27 Maio, Segunda-feira

    Tempo Temperatura Precipitação Vento Pressão Humidade
    00:00 +10°C° 0.1 mm 6 m/s 758 mmHg 69%
    01:00 +9°C° 0.1 mm 6 m/s 758 mmHg 68%
    02:00 +9°C° 0 mm 6 m/s 758 mmHg 68%
    03:00 +9°C° 0 mm 6 m/s 758 mmHg 68%
    04:00 +8°C° 0 mm 6 m/s 758 mmHg 68%
    05:00 +8°C° 0 mm 6 m/s 759 mmHg 68%
    06:00 +8°C° 0 mm 5 m/s 759 mmHg 69%
    07:00 +8°C° 0 mm 5 m/s 759 mmHg 69%
    08:00 +9°C° 0 mm 6 m/s 759 mmHg 67%
    09:00 +10°C° 0 mm 6 m/s 760 mmHg 64%
    10:00 +13°C° 0 mm 6 m/s 760 mmHg 61%
    11:00 +12°C° 0 mm 7 m/s 759 mmHg 58%
    12:00 +14°C° 0 mm 7 m/s 759 mmHg 55%
    13:00 +15°C° 0 mm 7 m/s 758 mmHg 52%
    14:00 +15°C° 0 mm 7 m/s 758 mmHg 54%
    15:00 +15°C° 0 mm 7 m/s 758 mmHg 55%
    16:00 +15°C° 0 mm 6 m/s 758 mmHg 57%
    17:00 +14°C° 0 mm 6 m/s 758 mmHg 60%
    18:00 +13°C° 0 mm 6 m/s 758 mmHg 62%
    19:00 +13°C° 0 mm 5 m/s 758 mmHg 65%
    20:00 +13°C° 0 mm 5 m/s 758 mmHg 67%
    21:00 +12°C° 0 mm 5 m/s 758 mmHg 69%
    22:00 +12°C° 0 mm 5 m/s 758 mmHg 71%
    23:00 +12°C° 0 mm 5 m/s 758 mmHg 72%

    28 Maio, Terça-feira

    Tempo Temperatura Precipitação Vento Pressão Humidade
    00:00 +12°C° 0 mm 5 m/s 758 mmHg 73%
    01:00 +12°C° 0 mm 5 m/s 757 mmHg 74%
    02:00 +12°C° 0 mm 5 m/s 757 mmHg 73%
    03:00 +12°C° 0 mm 5 m/s 756 mmHg 73%
    04:00 +12°C° 0 mm 5 m/s 756 mmHg 73%
    05:00 +13°C° 0.1 mm 5 m/s 756 mmHg 73%
    06:00 +13°C° 0.1 mm 5 m/s 756 mmHg 73%
    07:00 +13°C° 0.1 mm 5 m/s 756 mmHg 73%
    08:00 +13°C° 0.1 mm 6 m/s 756 mmHg 70%
    09:00 +14°C° 0.1 mm 6 m/s 755 mmHg 67%
    10:00 +15°C° 0.1 mm 7 m/s 755 mmHg 64%
    11:00 +14°C° 0.1 mm 7 m/s 755 mmHg 65%
    12:00 +14°C° 0.1 mm 6 m/s 754 mmHg 67%
    13:00 +14°C° 0.1 mm 6 m/s 754 mmHg 68%
    14:00 +14°C° 0.1 mm 6 m/s 753 mmHg 68%
    15:00 +14°C° 0.1 mm 6 m/s 753 mmHg 68%
    16:00 +14°C° 0.1 mm 6 m/s 752 mmHg 68%
    17:00 +14°C° 0.4 mm 6 m/s 752 mmHg 69%
    18:00 +12°C° 0.4 mm 7 m/s 753 mmHg 70%
    19:00 +12°C° 0.4 mm 7 m/s 753 mmHg 71%
    20:00 +11°C° 0.5 mm 7 m/s 753 mmHg 71%
    21:00 +10°C° 0.5 mm 7 m/s 753 mmHg 71%
    22:00 +10°C° 0.5 mm 7 m/s 753 mmHg 71%
    23:00 +9°C° 0.3 mm 7 m/s 754 mmHg 71%
    Mostrar mais